DELTA 1 DEB, 10711

Orbit data source: Space-Track

DELTA 1 DEB, 10711 is space debris in SSO originally from a launch on Thu, 29 Jul 1976 UTC launched from the Air Force Western Test Range (AFWTR). Debris objects in space refer to the collection of defunct objects orbiting the Earth. Examples of debris include non-operational satellites, rocket bodies, and fragments generated from explosions, collisions, or faulty payload assembly.

Loading next visibility...
Identifier
10711, 1976-077AG
Orbit
SSO
Country
Flag of USUS
Related business
Manufacturer
Unknown
Mission
Spacecraft
Bus & Motor
Unknown
Mass
Unknown
Launch date (UTC)
1976-07-29 (50 years ago)
Launch vehicle
Unknown
Launch site
Air Force Western Test Range (AFWTR)
Object type
Payload
Rocket body
Debris
Shape & HBR
Unknown shape, 0.1 m
Radar Cross Section
Medium (>0.1 m² and <1 m²)

Expand to show TLE details & history
Last TLE update: 11 hours ago

TLE from 11 hours ago
0 DELTA 1 DEB
1 10711U 76077AG  26255.94466605 -.00000048  00000-0 -15787-4 0  9993
2 10711 102.5013 241.0236 0063274 280.2584 142.5945 12.29247745249517
Epoch: 2026-09-12T22:40Z
TLE epoch observation values (Epoch: 2026-09-12T22:40:19.146Z)
Latitude
60.79532°
Longitude
-114.2515°
Altitude
1,602.651 km
Speed
7.056 km/s
True Right ascension
14h 31m 05s
True Declination
60° 39' 51"
Sunlit
Object was in daylight at epoch
Visualization orbit readout
Latitude
Unknown
Longitude
Unknown
Altitude
Unknown
Speed
Unknown
Apparent Right ascension
Unknown
Apparent Declination
Unknown
Sunlit
N/A
Visualization observer readout
Local Sidereal Time
02:34:13
Azimuth
Unknown
Elevation
Unknown
Doppler factor
Unknown
Orbital elements
Apogee altitude
1,600.299 km
Perigee altitude
1,499.969 km
Semi-major axis
7,928.271 km
Eccentricity
0.00633
Inclination
102.5013°
RAAN
241.0236°
Arg. of periapsis
280.2584°
True anomaly
143.03219°
Mean anomaly
142.5945°
Eccentric anomaly
142.81362°
Mean motion
3.07451 °/min
Orbital period
117.09 mins
BSTAR
-0.000015787
Loading maneuver chart data...
Computing Atmospheric mass density...
Loading historical data...
Loading historical data...
Loading historical data...
Loading historical data...
Loading historical data...
Loading historical data...
Loading historical data...

Documentation

Showing up to 5 results
|